YAMAL 401 (40345 NORAD) Tracking and Keplerian Element Data

This shows tracking and keplerian element data for the satellite.

Feedback or suggestion? Click here.




ElementValue
Catalog40345
NameYAMAL 401
Epoch Orbit3449
Epoch Day158.98729858
Epoch Year2024
RAAN339.23
Inclination0.0171
Eccentricity6.73E-05
Argument of Perigee182.4147
Mean Anonmoly179.5997
Mean Motion1.00268685
Decay Rate-2.27E-06
L11 40345U 14082A 24158.98729858 -.00000227 00000+0 00000+0 0 9997
L22 40345 0.0171 339.2300 0000673 182.4147 179.5997 1.00268685 34493



Live tracking and technical data element details for YAMAL 401 (NORAD 40345). YAMAL 401 can be tracked NOW for your location showing map with azimuth and elevation plus other details from your city location.







IsCatalogInMostPopularTable: catalog: 40345, numindb: 595
Update: records affected: 1



GetName: 40345 YAMAL 401

Hit Count: updated at: Mon, 17 Jun 2024 22:06:36 GMT